Location: ???????
(55.3754°N, 39.3545°E)
Time: 19:58:50
(UTC+00:00)

NOSS 2-1 (C) - Pass Details

Date: 14 April 2026
Orbit: 374 x 1679 km, 63.3° (Epoch: 19 May)

Event Time Altitude Azimuth Distance (km) Brightness Sun altitude
Rises 17:13:47 0° 308° (NW) 2,249 8.6 -7.1°
Reaches altitude 10° 17:15:47 10° 317° (NW) 1,419 6.8 -7.3°
Maximum altitude 17:18:39 38° 29° (NNE) 660 3.7 -7.7°
Drops below altitude 10° 17:21:59 10° 99° (E) 1,658 5.2 -8.1°
Enters shadow 17:22:06 - 100° (E) 1,706 5.2 -8.1°
